Time,TemperatureF,DewpointF,PressureIn,WindDirection,WindDirectionDegrees,WindSpeedMPH,WindSpeedGustMPH,Humidity,HourlyPrecipIn,Conditions,Clouds,dailyrainin,SoftwareType,DateUTC
2013-06-28 00:01:00,63.0,-99.9,30.04,SSE,167,7.0,11.0,-999,-99.99,,,-99.99,,2013-06-28 07:01:00,
2013-06-28 00:33:00,63.0,-99.9,30.04,South,177,4.0,7.0,-999,-99.99,,,-99.99,,2013-06-28 07:33:00,
2013-06-28 00:43:00,62.0,-99.9,30.04,South,176,6.0,7.0,-999,-99.99,,,-99.99,,2013-06-28 07:43:00,
2013-06-28 00:52:00,63.0,-99.9,30.04,South,180,4.0,11.0,-999,-99.99,,,-99.99,,2013-06-28 07:52:00,
2013-06-28 01:02:00,62.0,-99.9,30.03,South,175,5.0,7.0,-999,-99.99,,,-99.99,,2013-06-28 08:02:00,
2013-06-28 01:11:00,62.0,-99.9,30.03,South,179,5.0,8.0,-999,-99.99,,,-99.99,,2013-06-28 08:11:00,
2013-06-28 01:43:00,62.0,-99.9,30.03,South,177,5.0,8.0,-999,-99.99,,,-99.99,,2013-06-28 08:43:00,
2013-06-28 01:52:00,62.0,-99.9,30.03,South,175,6.0,9.0,-999,-99.99,,,-99.99,,2013-06-28 08:52:00,
2013-06-28 02:11:00,62.0,-99.9,30.03,South,189,4.0,7.0,-999,-99.99,,,-99.99,,2013-06-28 09:11:00,
2013-06-28 02:33:00,61.0,-99.9,30.03,South,189,4.0,7.0,-999,-99.99,,,-99.99,,2013-06-28 09:33:00,
2013-06-28 02:42:00,61.0,-99.9,30.02,South,188,2.0,3.0,-999,-99.99,,,-99.99,,2013-06-28 09:42:00,
2013-06-28 02:52:00,61.0,-99.9,30.02,South,180,2.0,4.0,-999,-99.99,,,-99.99,,2013-06-28 09:52:00,
2013-06-28 03:02:00,61.0,-99.9,30.02,SSE,167,3.0,6.0,-999,-99.99,,,-99.99,,2013-06-28 10:02:00,
2013-06-28 03:12:00,61.0,-99.9,30.02,SSE,160,6.0,7.0,-999,-99.99,,,-99.99,,2013-06-28 10:12:00,
2013-06-28 03:33:00,61.0,-99.9,30.01,South,181,5.0,8.0,-999,-99.99,,,-99.99,,2013-06-28 10:33:00,
2013-06-28 03:42:00,61.0,-99.9,30.01,South,190,5.0,7.0,-999,-99.99,,,-99.99,,2013-06-28 10:42:00,
2013-06-28 03:52:00,60.0,-99.9,30.01,South,191,4.0,7.0,-999,-99.99,,,-99.99,,2013-06-28 10:52:00,
2013-06-28 04:02:00,60.0,-99.9,30.01,South,182,4.0,6.0,-999,-99.99,,,-99.99,,2013-06-28 11:02:00,
2013-06-28 04:11:00,61.0,-99.9,30.01,South,174,3.0,4.0,-999,-99.99,,,-99.99,,2013-06-28 11:11:00,
2013-06-28 04:34:00,61.0,-99.9,30.00,SSE,154,4.0,5.0,-999,-99.99,,,-99.99,,2013-06-28 11:34:00,
2013-06-28 04:53:00,60.0,-99.9,30.00,South,178,6.0,9.0,-999,-99.99,,,-99.99,,2013-06-28 11:53:00,
2013-06-28 05:02:00,60.0,-99.9,30.00,SSE,164,4.0,8.0,-999,-99.99,,,-99.99,,2013-06-28 12:02:00,
2013-06-28 05:12:00,61.0,-99.9,30.00,SSW,192,4.0,6.0,-999,-99.99,,,-99.99,,2013-06-28 12:12:00,
2013-06-28 05:34:00,60.0,-99.9,30.00,South,180,5.0,8.0,-999,-99.99,,,-99.99,,2013-06-28 12:34:00,
2013-06-28 05:43:00,60.0,-99.9,30.00,South,176,6.0,8.0,-999,-99.99,,,-99.99,,2013-06-28 12:43:00,
2013-06-28 05:52:00,60.0,-99.9,30.00,South,180,4.0,5.0,-999,-99.99,,,-99.99,,2013-06-28 12:52:00,
2013-06-28 06:11:00,60.0,-99.9,30.00,South,175,5.0,6.0,-999,-99.99,,,-99.99,,2013-06-28 13:11:00,
2013-06-28 06:23:00,60.0,-99.9,30.00,South,175,5.0,6.0,-999,-99.99,,,-99.99,,2013-06-28 13:23:00,
2013-06-28 06:43:00,60.0,-99.9,30.00,SSE,168,4.0,5.0,-999,-99.99,,,-99.99,,2013-06-28 13:43:00,
2013-06-28 07:02:00,60.0,-99.9,30.01,South,169,4.0,6.0,-999,-99.99,,,-99.99,,2013-06-28 14:02:00,
2013-06-28 07:33:00,61.0,-99.9,30.01,SSW,192,2.0,3.0,-999,-99.99,,,-99.99,,2013-06-28 14:33:00,
2013-06-28 07:53:00,62.0,-99.9,30.01,SSE,168,2.0,4.0,-999,-99.99,,,-99.99,,2013-06-28 14:53:00,
2013-06-28 08:11:00,62.0,-99.9,30.01,SSE,165,4.0,4.0,-999,-99.99,,,-99.99,,2013-06-28 15:11:00,
2013-06-28 08:24:00,62.0,-99.9,30.01,SSE,163,3.0,4.0,-999,-99.99,,,-99.99,,2013-06-28 15:24:00,
2013-06-28 08:34:00,63.0,-99.9,30.01,SSE,159,3.0,4.0,-999,-99.99,,,-99.99,,2013-06-28 15:34:00,
2013-06-28 08:43:00,63.0,-99.9,30.01,SSE,155,2.0,4.0,-999,-99.99,,,-99.99,,2013-06-28 15:43:00,
2013-06-28 08:52:00,64.0,-99.9,30.01,SE,146,2.0,3.0,-999,-99.99,,,-99.99,,2013-06-28 15:52:00,
2013-06-28 09:02:00,66.0,-99.9,30.01,SE,137,2.0,4.0,-999,-99.99,,,-99.99,,2013-06-28 16:02:00,
2013-06-28 09:25:00,65.0,-99.9,30.01,SE,131,3.0,5.0,-999,-99.99,,,-99.99,,2013-06-28 16:25:00,
2013-06-28 09:33:00,65.0,-99.9,30.01,SE,140,2.0,4.0,-999,-99.99,,,-99.99,,2013-06-28 16:33:00,
2013-06-28 09:44:00,65.0,-99.9,30.01,SE,139,2.0,4.0,-999,-99.99,,,-99.99,,2013-06-28 16:44:00,
2013-06-28 09:53:00,63.0,-99.9,30.01,SSE,161,5.0,6.0,-999,-99.99,,,-99.99,,2013-06-28 16:53:00,
2013-06-28 10:02:00,64.0,-99.9,30.00,SSE,161,5.0,6.0,-999,-99.99,,,-99.99,,2013-06-28 17:02:00,
2013-06-28 10:33:00,65.0,-99.9,30.00,SSE,160,6.0,8.0,-999,-99.99,,,-99.99,,2013-06-28 17:33:00,
2013-06-28 10:44:00,67.0,-99.9,30.00,SSE,147,3.0,6.0,-999,-99.99,,,-99.99,,2013-06-28 17:44:00,
2013-06-28 10:52:00,68.0,-99.9,30.00,SE,141,2.0,4.0,-999,-99.99,,,-99.99,,2013-06-28 17:52:00,
2013-06-28 11:12:00,67.0,-99.9,30.00,South,172,5.0,6.0,-999,-99.99,,,-99.99,,2013-06-28 18:12:00,
2013-06-28 11:22:00,67.0,-99.9,30.00,South,172,5.0,6.0,-999,-99.99,,,-99.99,,2013-06-28 18:22:00,
2013-06-28 11:33:00,67.0,-99.9,30.00,SSE,163,6.0,7.0,-999,-99.99,,,-99.99,,2013-06-28 18:33:00,
2013-06-28 11:52:00,67.0,-99.9,29.99,South,179,6.0,8.0,-999,-99.99,,,-99.99,,2013-06-28 18:52:00,
2013-06-28 12:01:00,67.0,-99.9,29.99,South,175,5.0,8.0,-999,-99.99,,,-99.99,,2013-06-28 19:01:00,
2013-06-28 12:53:00,67.0,-99.9,29.98,South,174,8.0,11.0,-999,-99.99,,,-99.99,,2013-06-28 19:53:00,
2013-06-28 13:02:00,68.0,-99.9,29.98,South,176,9.0,12.0,-999,-99.99,,,-99.99,,2013-06-28 20:02:00,
2013-06-28 13:22:00,70.0,-99.9,29.98,SSE,155,6.0,10.0,-999,-99.99,,,-99.99,,2013-06-28 20:22:00,
2013-06-28 13:33:00,70.0,-99.9,29.98,SSE,153,4.0,6.0,-999,-99.99,,,-99.99,,2013-06-28 20:33:00,
2013-06-28 13:43:00,70.0,-99.9,29.98,SSE,166,5.0,6.0,-999,-99.99,,,-99.99,,2013-06-28 20:43:00,
2013-06-28 14:11:00,71.0,-99.9,29.97,SSE,149,5.0,9.0,-999,-99.99,,,-99.99,,2013-06-28 21:11:00,
2013-06-28 15:53:00,72.0,-99.9,29.94,SE,143,4.0,6.0,-999,-99.99,,,-99.99,,2013-06-28 22:53:00,
2013-06-28 16:02:00,71.0,-99.9,29.94,SE,143,3.0,6.0,-999,-99.99,,,-99.99,,2013-06-28 23:02:00,
2013-06-28 16:23:00,68.0,-99.9,29.93,SSE,159,8.0,9.0,-999,-99.99,,,-99.99,,2013-06-28 23:23:00,
2013-06-28 16:34:00,71.0,-99.9,29.92,SE,144,4.0,8.0,-999,-99.99,,,-99.99,,2013-06-28 23:34:00,
2013-06-28 16:43:00,71.0,-99.9,29.92,SE,143,4.0,7.0,-999,-99.99,,,-99.99,,2013-06-28 23:43:00,
2013-06-28 18:11:00,71.0,-99.9,29.91,SE,144,3.0,5.0,-999,-99.99,,,-99.99,,2013-06-29 01:11:00,
2013-06-28 18:42:00,70.0,-99.9,29.91,SE,143,3.0,6.0,-999,-99.99,,,-99.99,,2013-06-29 01:42:00,
2013-06-28 18:52:00,71.0,-99.9,29.91,SE,141,3.0,4.0,-999,-99.99,,,-99.99,,2013-06-29 01:52:00,
2013-06-28 19:01:00,70.0,-99.9,29.91,SE,145,4.0,5.0,-999,-99.99,,,-99.99,,2013-06-29 02:01:00,
2013-06-28 19:11:00,68.0,-99.9,29.91,SSE,155,3.0,7.0,-999,-99.99,,,-99.99,,2013-06-29 02:11:00,
2013-06-28 19:31:00,70.0,-99.9,29.90,SE,142,2.0,8.0,-999,-99.99,,,-99.99,,2013-06-29 02:31:00,
2013-06-28 19:41:00,69.0,-99.9,29.90,SE,138,3.0,6.0,-999,-99.99,,,-99.99,,2013-06-29 02:41:00,
2013-06-28 20:01:00,68.0,-99.9,29.91,East,98,3.0,5.0,-999,-99.99,,,-99.99,,2013-06-29 03:01:00,
2013-06-28 20:11:00,67.0,-99.9,29.91,East,100,2.0,5.0,-999,-99.99,,,-99.99,,2013-06-29 03:11:00,
2013-06-28 20:21:00,67.0,-99.9,29.91,East,100,2.0,5.0,-999,-99.99,,,-99.99,,2013-06-29 03:21:00,
2013-06-28 20:32:00,67.0,-99.9,29.91,SE,127,4.0,5.0,-999,-99.99,,,-99.99,,2013-06-29 03:32:00,
2013-06-28 20:51:00,66.0,-99.9,29.91,ESE,104,3.0,6.0,-999,-99.99,,,-99.99,,2013-06-29 03:51:00,
2013-06-28 21:01:00,66.0,-99.9,29.91,SE,124,3.0,4.0,-999,-99.99,,,-99.99,,2013-06-29 04:01:00,
2013-06-28 21:11:00,66.0,-99.9,29.91,SE,139,2.0,5.0,-999,-99.99,,,-99.99,,2013-06-29 04:11:00,
2013-06-28 21:25:00,66.0,-99.9,29.91,SE,134,4.0,7.0,-999,-99.99,,,-99.99,,2013-06-29 04:25:00,
2013-06-28 21:32:00,66.0,-99.9,29.91,South,170,9.0,11.0,-999,-99.99,,,-99.99,,2013-06-29 04:32:00,
2013-06-28 21:41:00,66.0,-99.9,29.91,SE,143,4.0,6.0,-999,-99.99,,,-99.99,,2013-06-29 04:41:00,
2013-06-28 21:51:00,66.0,-99.9,29.91,SE,143,4.0,6.0,-999,-99.99,,,-99.99,,2013-06-29 04:51:00,
2013-06-28 22:11:00,65.0,-99.9,29.92,East,96,3.0,6.0,-999,-99.99,,,-99.99,,2013-06-29 05:11:00,
2013-06-28 22:21:00,64.0,-99.9,29.92,South,188,4.0,6.0,-999,-99.99,,,-99.99,,2013-06-29 05:21:00,
2013-06-28 22:31:00,65.0,-99.9,29.92,South,176,6.0,8.0,-999,-99.99,,,-99.99,,2013-06-29 05:31:00,
2013-06-28 22:42:00,65.0,-99.9,29.92,South,176,6.0,8.0,-999,-99.99,,,-99.99,,2013-06-29 05:42:00,
2013-06-28 22:52:00,64.0,-99.9,29.93,SSE,160,4.0,7.0,-999,-99.99,,,-99.99,,2013-06-29 05:52:00,
2013-06-28 23:01:00,65.0,-99.9,29.93,SSE,147,2.0,6.0,-999,-99.99,,,-99.99,,2013-06-29 06:01:00,
2013-06-28 23:22:00,64.0,-99.9,29.93,SSW,193,5.0,8.0,-999,-99.99,,,-99.99,,2013-06-29 06:22:00,
2013-06-28 23:53:00,64.0,-99.9,29.93,SSW,197,4.0,9.0,-999,-99.99,,,-99.99,,2013-06-29 06:53:00,